STARLINK-2346, 47887

Orbit data source: Space-Track

STARLINK-2346, 47887 is a payload satellite owned by SpaceX/Seattle (US) in LEO that was launched on Sun, 14 Mar 2021 UTC via an FALCON 9 launch vehicle from the Air Force Eastern Test Range (AFETR). Payload-class satellites include a variety of spacecraft equipped with specific instruments for various scientific and technological missions. These include communications satellites like Starlink; space stations such as the ISS; scientific satellites like the Hubble; Earth observation satellites from companies like Planet Labs, Umbra, and HawkEye 360; GPS; miniature CubeSats for education and research; and military/defense satellites.

Loading next visibility...
Identifier
47887, 2021-021AD
Orbit
LEO
Country
Flag of USUS
Related business
Manufacturer
SpaceX/Seattle
Mission
Operational Commercial Communications
Bus & Motor
STARLINK, Unknown motor
Mass
260 kg wet, ~248 kg dry
Launch date (UTC)
2021-03-14 (5 years ago)
Launch vehicle
FALCON 9
Launch site
Air Force Eastern Test Range (AFETR)
Object type
Payload
Rocket body
Debris
Shape & HBR
Box + 1 Pan, 10.1 m
Radar Cross Section
13.562 m², Large (>1 m²)

Expand to show TLE details & history
Last TLE update: 2 days ago

TLE from 2 days ago
0 STARLINK-2346
1 47887U 21021AD  26171.37348975  .00000414  00000-0  25104-4 0  9998
2 47887  53.1585 163.2713 0001124  83.2683 276.8447 15.31699541291794
Epoch: 2026-06-20T08:57Z
TLE epoch observation values (Epoch: 2026-06-20T08:57:49.514Z)
Latitude
0.00004°
Longitude
120.22598°
Altitude
471.55 km
Speed
7.632 km/s
True Right ascension
10h 53m 05s
True Declination
0° 00' 00"
Sunlit
Object was in daylight at epoch
Visualization orbit readout
Latitude
Unknown
Longitude
Unknown
Altitude
Unknown
Speed
Unknown
Apparent Right ascension
Unknown
Apparent Declination
Unknown
Sunlit
N/A
Visualization observer readout
Local Sidereal Time
21:31:21
Azimuth
Unknown
Elevation
Unknown
Doppler factor
Unknown
Orbital elements
Apogee altitude
471.768 km
Perigee altitude
470.228 km
Semi-major axis
6,849.135 km
Eccentricity
0.00011
Inclination
53.1585°
RAAN
163.2713°
Arg. of periapsis
83.2683°
True anomaly
276.83191°
Mean anomaly
276.8447°
Eccentric anomaly
276.83831°
Mean motion
3.82904 °/min
Orbital period
94.02 mins
BSTAR
0.000025104
Loading maneuver chart data...
Computing Atmospheric mass density...

Documentation

Showing up to 5 results
|